This is the latest recevied weather packets stored in our database for station/object KG4ZVW. If no packets are shown the sender has not sent any weather packets the latest 10 day(s).
| Time | Temp. | Humidity | Pressure | Rain* | Wind** | Luminosity | Snow |
|---|---|---|---|---|---|---|---|
| 1777513702 | 25.56° C | 74% | 1012.3 hPa | 0 mm | - | 0 W/m² | - |
| 1777513412 | 25.56° C | 74% | 1012.3 hPa | 0 mm | - | 0 W/m² | - |
| 1777513106 | 25.56° C | 74% | 1012.1 hPa | 0 mm | - | 0 W/m² | - |
| 1777512516 | 25.56° C | 73% | 1012.1 hPa | 0 mm | - | 0 W/m² | - |
| 1777512211 | 25.56° C | 73% | 1011.6 hPa | 0 mm | - | 0 W/m² | - |
| 1777511905 | 25.56° C | 73% | 1011.6 hPa | 0 mm | - | 0 W/m² | - |
| 1777510709 | 26.11° C | 72% | 1011.4 hPa | 0 mm | - | 0 W/m² | - |
| 1777510403 | 26.11° C | 71% | 1011.1 hPa | 0 mm | - | 0 W/m² | - |
| 1777508900 | 26.11° C | 71% | 1011.2 hPa | 0 mm | - | 0 W/m² | - |
| 1777507419 | 26.11° C | 71% | 1010.9 hPa | 0 mm | - | 0 W/m² | - |
| 1777505611 | 26.67° C | 68% | 1010.9 hPa | 0 mm | - | 23 W/m² | - |
| 1777504111 | 27.22° C | 66% | 1010.9 hPa | 0 mm | - | 84 W/m² | - |
| 1777502615 | 27.78° C | 64% | 1010.9 hPa | 0 mm | - | 158 W/m² | - |
| 1777502309 | 27.78° C | 63% | 1010.9 hPa | 0 mm | - | 176 W/m² | - |
| 1777502006 | 27.78° C | 64% | 1010.9 hPa | 0 mm | - | 192 W/m² | - |
| 1777501701 | 28.33° C | 64% | 1010.9 hPa | 0 mm | - | 211 W/m² | - |
| 1777501416 | 27.78° C | 64% | 1010.9 hPa | 0 mm | - | 227 W/m² | - |
| 1777501111 | 28.33° C | 63% | 1010.9 hPa | 0 mm | - | 244 W/m² | - |
| 1777500807 | 27.78° C | 62% | 1010.9 hPa | 0 mm | - | 264 W/m² | - |
| 1777500504 | 28.33° C | 62% | 1011 hPa | 0 mm | - | 279 W/m² | - |
| 1777500219 | 28.33° C | 61% | 1011 hPa | 0 mm | - | 295 W/m² | - |
| 1777499913 | 28.33° C | 62% | 1011 hPa | 0 mm | - | 311 W/m² | - |
| 1777499607 | 28.33° C | 62% | 1011 hPa | 0 mm | - | 332 W/m² | - |
| 1777499303 | 28.89° C | 62% | 1011 hPa | 0 mm | - | 350 W/m² | - |
| 1777498412 | 28.89° C | 60% | 1011.3 hPa | 0 mm | - | 406 W/m² | - |
* Rain latest hour (hover to see other rain measurements)
** Current wind speed in m/s (hover to see current wind gust speed)